Vorticity
6 6 7 7 7 7 7 6 6 6 6 6 6 6 6 6 6 7 7 7 7 7 7 7 7 7 7 7 8 8 8 8 8 8 8 8 7 7 7 8 8 9 10 11 13 15 16 16 16 14 12 10 9 9 9 10 10 9 6 1 -2 -1 5 15 14 8 4 4 3 4 5 15 21 24 24 18 14 12 12 11 10 9 7 5 4 3 2 4 6 8 10 9 8 7 5 5 4 4 4 4 4 4 4
6 6 6 6 7 7 7 7 6 6 6 6 6 6 6 6 6 6 6 6 6 6 6 6 6 6 6 6 7 7 8 8 8 9 8 8 8 7 7 7 7 7 8 9 10 12 14 15 16 15 14 12 10 9 9 10 10 10 12 11 3 -7 -16 -4 3 5 3 3 2 1 0 6 11 15 16 10 8 8 8 8 8 8 8 6 5 4 2 1 2 4 6 8 9 8 8 7 6 5 4 4 4 5 5
6 6 6 6 6 6 6 6 6 6 6 6 6 6 6 6 6 6 6 6 6 6 6 6 6 6 6 6 6 6 7 7 8 9 9 9 8 8 8 7 7 7 7 8 8 10 11 13 14 15 15 13 11 10 9 10 10 11 11 13 11 5 -4 -1 2 4 3 3 2 0 -3 -7 -9 -9 -9 -11 -7 -1 2 2 3 3 4 3 3 3 1 0 1 2 3 4 6 9 13 11 9 7 6 5 5 5 5
6 6 6 6 6 6 6 6 6 6 6 6 6 6 6 6 6 6 6 6 6 6 6 6 6 6 6 6 6 6 6 6 7 8 9 9 9 9 9 8 8 7 7 7 8 8 9 11 12 14 15 14 13 11 9 10 11 10 8 3 3 7 12 13 12 9 6 4 3 1 -1 -7 -14 -20 -24 -22 -15 -7 -3 -1 1 1 1 0 -0 -1 -2 -2 -1 0 2 2 2 4 7 9 9 9 9 7 6 6 6
6 6 6 6 6 6 6 6 6 6 6 6 6 6 6 6 6 5 5 6 6 6 6 6 6 6 6 6 6 6 5 5 6 6 7 8 9 9 9 9 9 8 8 8 7 8 8 9 11 12 14 14 14 12 10 10 10 10 6 -2 -1 3 8 13 15 14 12 8 5 3 1 -3 -8 -12 -15 -13 -11 -8 -5 -2 -0 1 1 -0 -1 -3 -3 -3 -2 -0 2 2 2 1 -2 1 4 6 8 8 7 6 6
6 6 6 6 6 6 5 5 5 6 6 6 6 6 6 6 6 6 6 5 5 6 6 6 6 6 6 6 6 6 5 5 5 5 6 7 8 9 9 10 9 9 9 8 8 8 8 8 9 10 12 13 13 13 12 10 10 10 10 4 2 1 -0 1 7 14 18 15 11 7 5 5 3 1 0 1 1 1 -0 1 2 3 4 3 2 -0 -1 -1 -0 1 2 3 3 2 -0 1 2 3 5 6 7 7 6
6 6 6 6 6 5 5 5 5 5 5 5 5 5 6 6 6 6 6 6 6 5 5 5 5 6 6 6 5 5 5 5 5 5 5 5 6 7 8 9 9 10 9 9 9 8 8 8 8 9 10 12 13 13 13 12 11 10 11 12 9 3 -2 -7 -3 6 18 19 19 18 19 18 16 15 15 16 14 11 7 6 6 7 9 8 7 5 5 6 5 4 3 3 3 3 3 3 2 2 3 4 5 6 6
6 6 6 6 5 5 5 5 5 5 5 5 5 5 5 5 5 5 6 6 6 6 5 5 5 5 5 5 5 5 5 5 5 4 4 5 5 5 6 7 8 9 9 9 9 9 8 8 8 8 9 11 12 13 13 13 12 11 10 12 13 10 3 -4 -7 -5 2 9 14 18 20 21 21 20 17 18 18 17 13 11 10 11 10 9 9 9 10 11 10 8 6 4 4 3 3 3 3 3 3 3 4 4 6
6 6 6 5 5 5 5 5 5 5 5 5 5 5 5 5 5 5 5 5 5 5 5 5 5 5 5 5 5 5 5 4 4 4 4 4 4 4 4 5 6 7 8 9 9 9 9 9 8 8 8 9 10 12 13 14 14 13 12 12 13 14 13 8 2 -4 -6 -5 0 7 11 12 14 15 12 13 14 14 11 12 14 15 13 12 13 14 15 14 13 11 8 6 4 3 3 3 4 4 4 3 4 4 5
6 6 6 5 5 5 5 5 5 5 5 5 5 5 5 5 5 5 5 5 5 5 5 5 5 5 5 5 5 5 4 4 4 4 4 3 3 3 3 3 4 5 6 7 8 8 9 9 9 9 8 8 9 10 11 13 14 14 14 13 13 14 15 16 13 7 -2 -6 -5 -3 -2 -1 1 4 6 8 9 10 11 15 18 20 20 21 21 21 20 18 15 12 9 7 5 3 2 3 4 4 4 4 4 5 5
6 6 5 5 5 5 5 5 5 5 5 5 5 5 5 4 4 4 4 4 4 4 4 4 5 5 5 5 5 5 4 4 4 4 4 3 3 3 3 3 3 3 4 5 6 7 8 8 9 9 8 8 8 8 9 11 12 14 15 15 15 15 15 16 16 15 11 7 3 -0 -5 -8 -9 -7 -0 2 3 6 10 14 17 18 18 23 25 25 22 19 15 12 9 7 5 3 2 3 4 4 4 4 4 4 5
6 6 6 5 5 5 5 5 5 5 5 5 5 5 4 4 4 4 4 4 4 4 4 4 4 4 4 5 5 5 5 4 4 4 4 3 3 3 3 3 3 3 3 3 3 4 5 6 7 8 8 8 8 8 8 9 10 11 13 15 16 17 17 16 17 17 16 15 13 9 2 -5 -10 -13 -9 -5 -1 2 7 9 11 9 5 10 16 21 21 18 15 12 9 7 5 4 4 4 4 4 4 4 3 3 4
6 5 5 5 5 5 5 5 5 5 4 4 4 4 4 4 4 4 4 4 4 4 4 4 4 4 4 4 4 5 5 5 5 4 4 4 3 3 3 2 2 2 2 2 2 3 3 4 5 6 6 7 8 8 8 8 8 9 10 12 14 16 17 18 18 18 18 17 17 15 11 5 -1 -7 -10 -7 -3 0 3 4 3 -2 -12 -11 -5 3 12 14 15 14 12 10 9 9 9 8 7 6 5 5 4 4 4
5 5 5 5 5 5 5 5 5 4 4 4 4 4 4 4 4 4 4 4 4 4 4 4 4 4 4 4 4 5 5 5 5 5 5 5 4 4 4 3 2 2 2 2 2 2 2 3 3 3 4 5 6 6 7 7 7 7 8 9 10 12 14 16 17 19 19 19 18 17 15 12 9 5 1 -0 -0 1 1 -1 -4 -9 -19 -23 -23 -19 -12 -1 7 11 13 12 13 15 16 15 12 10 9 9 10 11 10
5 5 5 5 5 5 5 5 5 5 4 4 4 4 4 4 4 4 4 4 4 4 4 4 4 4 4 4 4 4 5 5 5 5 5 5 5 5 5 5 4 3 3 2 2 2 2 2 2 3 3 3 4 4 5 5 6 6 7 7 7 8 9 11 13 15 18 19 20 20 19 17 15 12 10 7 6 4 3 -1 -4 -8 -13 -16 -19 -23 -29 -22 -15 -7 3 7 12 16 18 18 17 15 13 15 18 20 20
5 5 5 5 5 5 5 5 5 5 4 4 4 4 4 4 4 4 4 4 4 4 4 4 4 4 4 4 4 5 5 5 5 5 6 6 6 6 6 6 6 6 5 4 3 3 2 2 2 2 2 3 3 3 4 4 5 5 5 6 6 6 7 8 9 11 13 16 18 20 21 21 19 17 15 12 11 9 7 3 -0 -4 -7 -8 -9 -11 -15 -22 -24 -22 -12 -7 -1 6 12 15 16 16 15 16 17 19 21
5 5 5 5 5 5 5 5 5 5 4 4 4 4 4 4 4 5 5 5 5 5 4 4 4 4 4 4 4 4 5 5 5 5 5 6 6 6 6 6 6 6 6 6 6 5 4 3 2 2 2 2 2 2 3 3 4 4 4 5 5 5 5 6 7 8 9 11 13 16 19 21 22 22 20 18 15 13 11 8 5 1 -3 -5 -6 -6 -5 -4 -7 -12 -16 -17 -14 -9 -3 1 4 6 6 5 5 6 8
5 5 5 5 5 5 5 5 5 5 5 5 5 5 5 5 5 5 5 5 5 5 5 5 5 5 5 4 4 4 4 5 5 5 5 5 5 5 5 6 6 6 7 7 7 7 6 6 5 4 3 2 2 2 2 3 3 3 4 4 4 4 4 4 5 6 6 7 9 11 13 16 19 22 23 23 21 19 16 14 10 6 2 -1 -3 -5 -5 -3 0 2 -0 -8 -14 -17 -16 -15 -13 -9 -8 -7 -5 -4 -6
5 5 5 5 5 5 5 5 5 5 5 5 5 5 5 5 5 5 5 5 5 5 5 5 5 5 5 5 5 5 5 5 5 5 5 5 5 5 5 5 5 6 6 6 7 7 7 7 7 6 5 4 3 3 2 2 3 3 3 4 4 4 4 4 4 4 4 5 6 7 8 10 13 16 20 23 24 24 23 21 18 14 9 5 2 -1 -3 -4 -3 -0 3 3 -1 -7 -13 -16 -16 -15 -14 -10 -9 -12 -18
5 5 5 5 5 5 5 5 5 5 5 5 5 5 5 5 5 5 6 5 6 6 6 6 6 6 6 6 6 6 6 6 6 6 6 6 6 6 6 6 6 6 6 6 6 6 7 7 7 7 7 7 6 5 4 4 3 3 3 3 3 4 4 4 4 4 4 4 4 5 5 6 8 10 13 16 20 23 26 26 26 23 20 15 10 6 2 -0 -1 -1 -0 2 4 6 5 4 -1 -7 -13 -13 -15 -19 -25
6 5 5 5 5 5 5 5 5 6 6 6 6 6 6 6 6 7 7 7 7 7 7 7 7 8 8 8 8 8 8 8 7 7 7 7 7 7 7 7 7 6 6 6 6 6 6 7 7 7 7 7 7 7 6 6 5 5 4 4 4 4 4 4 4 4 4 4 4 4 4 4 5 6 7 9 12 15 19 23 26 28 28 26 22 17 12 8 5 4 4 4 6 9 14 21 23 18 7 -1 -8 -13 -18
6 6 5 5 6 6 6 6 6 6 6 7 7 7 7 7 8 8 8 8 9 9 9 9 9 9 9 9 9 9 9 9 9 8 8 8 8 8 8 8 8 8 7 7 7 7 7 7 7 7 7 7 7 7 7 7 7 6 6 5 5 5 4 4 4 4 4 4 4 4 4 4 4 4 4 5 6 8 10 14 18 23 27 29 29 27 24 20 16 13 11 10 10 10 11 18 27 34 34 24 15 8 3
6 6 6 6 6 6 6 6 7 7 7 8 8 8 8 9 9 9 9 9 9 9 9 9 9 9 9 9 9 9 9 9 9 9 9 9 9 9 9 9 9 8 8 8 8 8 8 8 8 8 7 7 7 7 7 7 7 7 7 7 6 6 6 5 5 5 5 4 4 4 4 4 4 4 4 4 4 4 5 7 9 12 16 21 24 27 29 27 25 22 19 16 14 12 10 11 15 23 32 34 32 28 22
6 6 6 6 6 7 7 7 8 8 8 8 9 9 9 9 9 9 9 9 9 9 9 9 8 8 9 9 9 9 9 9 9 9 9 9 9 9 9 9 9 9 8 8 8 8 8 8 8 8 8 8 8 8 8 8 7 7 7 7 7 7 7 6 6 6 6 5 5 5 5 4 4 4 4 4 4 3 4 4 4 5 7 10 13 17 21 24 25 24 23 20 18 14 11 9 8 10 15 22 28 32 34
6 6 7 7 7 7 8 8 8 8 8 8 8 9 8 8 8 8 8 8 8 8 8 8 8 8 8 8 8 8 8 9 9 9 9 9 9 9 9 9 9 9 9 9 8 8 8 9 9 9 9 8 8 8 8 8 8 8 8 8 8 7 7 7 7 7 7 6 6 6 6 5 5 5 5 5 4 4 4 3 3 3 3 4 5 7 10 13 16 18 19 19 18 16 12 9 7 6 7 10 14 19 24
6 7 7 7 7 7 7 8 8 8 7 7 8 8 8 7 7 7 7 7 7 7 7 7 8 8 8 8 8 8 8 9 9 9 9 9 9 10 9 9 9 10 10 10 9 9 8 9 9 9 9 9 9 9 9 9 9 9 9 8 8 8 8 8 8 7 7 7 7 7 7 7 7 6 6 6 6 5 5 5 4 4 3 3 3 4 4 5 7 9 11 13 13 13 12 10 8 6 5 6 7 9 11
6 7 7 7 7 7 7 7 7 7 7 7 7 7 7 7 7 7 7 7 7 7 8 8 8 8 8 8 9 9 9 9 9 9 9 9 9 10 10 10 10 10 10 10 10 10 9 9 9 10 10 9 9 9 9 9 9 9 9 9 9 9 9 9 9 8 8 8 8 8 8 8 7 7 7 7 7 7 7 7 6 6 5 5 4 4 4 4 4 5 6 7 8 9 10 10 9 8 7 6 6 6 6
6 7 6 6 6 6 7 6 6 6 6 6 6 6 6 6 6 6 6 7 7 7 7 8 8 8 8 8 8 8 8 8 8 8 8 9 9 10 10 10 10 10 10 10 11 10 10 10 10 10 10 10 10 10 9 9 9 9 9 9 9 9 9 9 9 9 9 9 9 8 8 8 8 8 8 8 8 8 8 8 8 7 7 7 6 6 6 5 5 5 5 5 5 6 7 7 7 7 6 6 6 5 5
6 6 6 6 6 6 6 6 6 6 6 6 6 6 6 6 6 6 6 6 6 6 7 7 7 7 7 7 7 7 7 7 7 7 7 8 8 9 9 10 10 10 10 10 10 10 10 10 10 10 10 10 10 10 10 10 10 10 10 10 10 10 10 10 10 10 10 10 10 9 9 9 9 9 9 8 8 8 8 9 9 9 8 8 8 8 7 7 7 6 6 6 6 6 6 6 6 6 5 5 5 4 4
6 6 6 6 6 6 6 6 6 6 6 5 5 5 5 5 5 5 5 5 5 6 6 6 6 6 6 6 6 6 6 6 6 7 7 7 7 8 8 8 9 9 9 9 9 9 10 10 9 9 10 10 10 10 10 10 10 10 10 10 10 10 9 9 9 10 10 10 10 10 10 10 10 10 10 9 9 9 9 9 9 9 9 9 9 9 8 8 8 8 7 7 7 7 7 7 6 6 6 5 5 5 4
5 5 6 5 6 6 6 5 5 5 5 5 5 5 5 5 5 5 5 5 5 5 5 5 5 5 5 5 5 5 5 5 6 6 6 6 7 7 7 7 7 7 7 8 8 8 8 9 9 9 9 9 10 10 10 10 10 10 10 10 10 9 9 9 9 9 9 10 10 10 10 11 11 11 11 11 11 10 10 9 9 9 9 9 9 9 9 9 9 9 8 8 8 7 7 7 7 7 7 7 6 6 5
5 5 6 6 6 6 5 5 5 5 5 5 5 5 5 5 5 5 5 5 5 5 5 4 5 5 4 5 5 5 5 5 6 6 6 6 6 6 6 6 6 6 6 7 7 7 7 8 8 8 8 8 9 9 10 10 10 10 10 10 10 9 9 9 9 9 9 9 9 9 10 10 10 11 11 11 12 12 11 11 11 10 10 9 9 9 9 9 9 9 9 9 8 8 8 8 8 8 8 8 8 7 7
5 5 5 6 5 5 5 5 5 5 5 5 5 5 5 5 5 5 5 5 5 5 5 5 5 5 5 5 5 5 5 6 6 6 5 5 5 5 5 5 5 5 6 6 6 6 7 7 7 7 7 8 8 9 9 9 9 10 10 10 10 10 9 9 9 9 8 8 8 8 9 9 9 10 10 11 11 11 12 12 12 12 11 11 10 10 9 9 9 9 9 9 9 9 8 8 8 8 8 8 8 8 8
5 5 5 5 5 4 5 5 5 4 4 5 5 5 5 5 5 5 5 5 5 6 6 6 6 6 6 6 6 6 6 6 6 6 6 6 5 5 5 5 5 5 5 5 5 6 6 6 6 6 7 7 8 8 8 8 9 9 9 10 10 10 10 9 9 9 9 8 8 8 8 8 9 9 9 10 10 10 11 11 11 12 12 12 11 11 11 10 10 10 10 10 10 9 9 9 9 9 8 8 8 9 9
4 4 4 4 4 5 5 4 4 4 4 4 4 5 5 5 5 5 5 5 6 6 6 6 7 7 7 7 7 7 7 7 7 7 6 6 6 5 5 6 5 5 5 5 5 6 6 6 6 6 7 7 7 7 8 8 8 9 9 9 9 9 9 9 9 9 9 9 8 8 8 8 8 8 8 8 9 9 9 10 10 10 11 11 11 11 11 11 11 11 11 10 10 10 10 10 10 9 9 9 9 9 9
4 4 4 4 4 4 4 4 4 4 4 4 4 5 5 5 5 5 6 6 6 7 7 7 7 8 8 8 8 8 8 8 8 8 8 7 6 6 6 6 6 6 6 6 6 6 6 6 6 6 6 7 7 7 7 8 8 8 9 9 9 9 9 9 9 9 9 9 9 8 8 8 8 8 8 8 8 8 8 9 9 9 10 10 10 11 11 11 11 11 11 11 11 11 11 11 10 10 10 10 10 9 9
4 4 4 4 4 3 4 4 4 4 4 4 4 5 5 5 5 6 6 6 7 7 7 8 8 8 8 8 8 8 8 8 8 8 8 7 7 7 7 7 6 6 7 7 6 6 6 7 7 7 7 7 7 7 8 8 8 8 8 9 9 9 9 9 9 9 9 9 9 9 8 8 8 8 8 8 8 8 8 8 8 8 9 9 9 10 10 10 11 11 11 12 12 12 12 11 11 11 11 10 10 10 10
4 4 4 4 3 3 3 3 3 4 4 4 4 5 5 5 6 6 6 6 6 7 7 7 8 8 8 8 8 8 8 8 8 8 8 7 7 7 7 7 7 7 7 7 7 7 7 8 7 7 7 7 8 8 8 8 8 8 8 9 9 9 9 9 9 9 9 9 9 9 9 9 8 8 8 8 8 8 8 8 8 8 8 9 9 9 9 10 10 10 11 11 12 12 12 12 12 11 11 11 11 10 10
3 3 3 3 3 3 3 3 3 4 4 4 4 5 5 6 6 6 6 6 6 6 7 7 7 8 8 8 8 8 8 8 8 8 7 7 7 7 7 7 7 7 8 8 8 8 8 8 8 8 8 8 8 8 8 8 9 9 9 9 9 9 9 9 9 9 9 9 9 9 9 9 9 9 9 9 9 9 9 9 9 9 9 9 9 9 9 10 10 10 11 11 11 12 12 12 12 12 12 11 11 11 11
4 3 3 3 3 3 3 3 3 4 4 4 4 5 5 5 6 6 6 6 6 6 6 7 7 7 8 8 8 8 8 8 8 8 7 7 7 7 7 7 7 7 8 8 8 9 9 9 9 9 9 9 9 9 9 9 9 9 9 9 9 9 9 9 9 9 9 9 9 9 9 9 9 9 9 9 10 10 10 10 10 10 10 10 10 10 10 10 10 10 11 11 11 11 12 12 12 12 12 11 11 11 11
4 4 3 3 3 3 3 3 3 4 4 4 4 5 5 5 5 5 6 6 6 6 6 7 7 7 7 8 8 8 8 8 8 8 7 7 7 7 7 7 7 7 8 8 9 9 9 9 10 10 10 10 9 10 10 10 10 10 10 10 10 10 10 10 10 10 10 10 10 10 10 10 10 10 10 10 10 10 10 11 11 11 11 11 11 11 11 11 11 11 11 11 11 11 11 11 11 11 11 11 11 11 10
4 4 3 3 3 3 3 3 3 3 4 4 4 5 5 5 5 6 6 6 5 5 5 6 6 7 7 7 7 8 8 8 8 7 7 7 7 6 6 7 7 8 8 9 9 9 10 10 10 10 10 10 10 11 11 11 11 11 11 11 11 11 10 10 10 10 10 10 10 10 10 11 11 11 11 11 11 11 11 11 11 11 11 11 11 11 11 11 11 11 11 10 10 10 10 10 10 10 10 10 10 10 10
4 4 4 3 3 3 3 3 3 3 3 4 4 5 5 5 5 5 6 6 6 5 5 6 6 6 7 7 7 7 8 8 7 7 7 7 6 6 6 7 7 8 8 9 9 9 10 10 10 10 10 10 11 11 11 11 11 11 11 11 11 11 11 11 11 10 10 10 10 11 11 11 11 11 11 12 11 11 11 11 11 11 11 11 11 11 11 10 10 10 10 10 9 9 9 9 9 9 8 8 8 8 8
4 4 4 4 3 3 3 3 3 4 4 4 5 5 5 5 5 5 5 6 6 6 6 6 6 6 6 6 7 7 7 7 7 7 7 7 6 6 6 7 7 8 8 9 9 10 10 10 10 10 10 11 11 11 11 11 11 12 11 11 11 11 11 11 11 11 11 11 11 11 11 11 11 12 12 12 12 11 11 11 11 11 11 10 10 10 10 9 9 9 8 8 8 8 7 7 7 7 7 7 7 7 6
4 4 4 4 4 4 4 4 4 4 5 5 5 5 5 5 5 5 5 5 6 6 6 6 6 6 6 6 7 7 7 7 7 7 7 7 7 7 7 7 8 8 8 9 9 10 10 10 10 10 10 11 11 11 11 12 12 12 12 12 12 11 11 11 11 11 11 11 11 11 11 11 11 11 11 11 11 11 11 10 10 10 9 9 9 8 8 8 7 7 7 7 6 6 6 6 6 6 5 5 5 5 5
5 5 5 5 5 4 4 4 4 4 5 5 5 5 4 4 5 5 5 5 5 5 6 7 6 6 6 6 7 7 7 7 7 7 7 6 6 6 7 7 7 8 8 9 9 10 10 10 10 10 11 11 11 11 11 12 12 12 12 12 12 11 11 11 11 11 11 11 11 11 11 11 10 10 10 10 9 9 9 9 8 8 8 7 7 7 6 6 6 6 5 5 5 5 5 5 4 4 4 4 4 4 4
5 5 5 5 5 5 5 4 4 5 5 5 5 5 4 4 5 5 5 6 6 5 6 7 7 7 6 6 6 6 7 7 7 7 7 6 6 6 6 7 7 8 8 9 9 10 10 10 11 11 11 11 11 11 12 12 12 12 12 12 12 11 11 11 11 10 10 10 10 10 10 9 9 9 9 8 8 7 7 7 6 6 6 5 5 5 5 5 4 4 4 4 4 4 4 4 4 4 3 3 3 3 3
5 5 5 5 5 5 5 5 5 5 6 6 5 5 5 5 5 6 6 6 6 6 6 6 7 7 7 7 6 6 7 7 7 7 7 6 6 6 6 6 7 7 8 8 9 10 10 11 11 11 11 11 11 11 11 11 12 12 12 11 11 11 11 10 10 10 9 9 9 9 8 8 8 8 7 7 6 6 6 5 5 5 4 4 4 4 4 4 4 4 4 3 3 3 3 3 3 3 4 4 4 4 4
5 5 5 5 5 5 5 5 5 6 6 6 6 6 6 6 6 6 6 6 6 6 7 6 6 7 7 7 7 6 7 6 6 7 7 6 6 6 5 6 6 7 8 8 9 10 11 12 12 12 11 11 10 10 10 11 11 11 11 11 11 11 10 10 9 9 8 8 8 7 7 7 7 6 6 6 5 5 5 4 4 4 4 4 4 3 4 4 4 4 4 3 3 4 4 4 4 4 5 5 6 6 6
5 5 6 6 6 6 6 5 5 6 6 6 6 6 6 6 6 6 6 6 6 6 7 6 6 6 7 7 7 6 6 6 7 7 6 6 6 6 6 5 6 6 7 8 9 11 13 13 14 13 12 10 10 9 9 10 11 11 10 11 11 10 10 9 8 8 7 7 6 6 6 6 5 5 5 5 4 4 4 4 4 4 4 4 4 4 4 4 4 4 4 4 5 5 5 6 6 7 7 7 8 8 8
5 5 5 6 6 6 6 5 6 6 6 5 5 5 5 6 6 6 6 6 6 6 6 7 6 6 6 6 6 6 6 6 7 7 6 5 5 5 6 7 7 6 6 7 9 12 14 15 15 14 12 11 10 10 10 10 10 11 10 10 10 10 9 8 7 7 6 6 6 5 5 5 4 4 4 4 4 4 4 4 4 4 5 5 5 5 5 5 5 5 5 5 6 6 7 7 8 8 8 8 8 8 8
5 5 5 5 5 5 5 6 6 6 6 6 5 5 5 6 6 6 6 6 6 6 6 6 7 7 6 6 6 6 6 7 6 6 6 5 4 4 5 7 7 6 7 9 10 11 13 15 16 16 15 13 12 11 10 11 11 12 11 10 10 9 8 7 7 6 6 5 5 5 4 4 4 4 4 3 3 3 4 4 5 5 5 6 6 5 5 5 5 6 6 6 7 7 7 7 7 6 6 5 5 5 4
5 5 5 5 5 5 5 6 5 5 6 6 6 6 6 6 6 6 6 6 6 6 6 6 6 7 6 6 6 7 7 7 6 6 5 5 5 5 5 5 5 6 9 12 13 13 10 12 15 18 21 17 14 12 11 12 12 12 11 11 10 9 8 7 6 6 6 5 4 4 4 4 4 4 4 4 4 4 4 5 5 6 6 6 6 6 6 6 6 6 6 6 6 5 5 4 3 3 2 2 2 2 2
5 6 6 6 5 5 6 5 5 5 6 6 6 6 6 6 6 6 6 6 6 6 6 6 6 6 6 6 6 6 6 6 6 5 5 4 5 5 4 4 5 7 9 10 12 13 13 13 15 17 20 19 16 13 12 12 12 12 11 11 10 8 8 7 6 6 6 5 4 4 4 4 4 4 4 4 4 5 5 5 6 6 6 6 5 5 5 5 5 5 4 4 3 3 2 2 1 1 1 1 1 1 1
6 6 6 6 6 6 6 5 5 5 5 6 6 6 6 6 6 7 7 7 7 6 6 6 6 6 6 6 6 6 6 6 6 6 5 4 4 4 4 5 7 8 9 5 5 8 14 16 17 17 16 16 15 13 12 12 12 11 11 10 9 8 7 6 6 6 5 5 4 4 4 5 5 5 5 5 5 5 5 5 5 5 5 5 4 4 4 4 3 3 2 2 1 1 1 1 1 0 0 0 0 0 0
7 7 7 6 6 6 5 5 5 5 5 5 6 6 6 7 7 7 7 7 6 6 6 6 6 6 6 6 6 6 6 5 6 5 5 3 3 4 3 5 7 8 10 7 6 7 12 18 18 15 12 13 13 13 11 10 10 10 10 9 8 7 7 6 6 5 5 5 5 5 5 5 5 5 5 5 5 5 5 5 4 4 4 3 3 3 3 2 2 1 1 1 0 0 0 -0 -0 -0 -1 -1 -0 -0 0
7 7 7 6 6 6 6 6 5 5 5 6 6 6 7 7 7 7 7 7 6 6 6 6 6 7 7 7 6 6 6 6 5 5 5 3 3 3 4 4 5 6 8 9 10 11 12 16 15 14 16 16 16 15 11 9 8 8 8 8 8 7 6 6 5 5 5 5 5 5 5 5 5 5 5 5 5 4 4 4 4 3 3 3 2 2 2 2 1 1 1 0 -0 -0 -1 -1 -1 -1 -1 -1 -0 0 1
7 7 7 7 7 6 6 6 6 6 6 6 6 7 7 7 7 7 7 7 7 7 7 7 7 7 7 7 7 6 6 6 5 4 4 4 4 3 3 4 4 4 6 7 9 13 17 15 11 12 23 17 15 15 16 12 9 8 8 8 7 7 6 5 5 5 5 5 5 5 5 5 5 5 4 4 4 4 4 3 3 3 2 2 2 2 2 1 1 1 0 -0 -0 -1 -1 -2 -2 -1 -1 -1 0 1 1
7 7 7 7 7 7 6 6 6 7 7 7 7 7 7 7 8 8 8 8 7 7 7 7 7 7 7 7 7 6 6 6 4 3 2 3 4 4 3 4 4 4 5 6 7 9 13 13 13 14 21 18 16 16 18 18 15 11 9 8 7 6 5 5 4 4 4 5 5 5 5 5 5 4 4 4 4 4 4 3 3 3 2 2 2 2 2 2 1 1 0 -0 -1 -1 -1 -1 -1 -1 -0 0 1 2 2
7 7 7 7 6 6 6 6 6 6 7 7 7 7 7 8 8 8 8 8 7 7 7 7 7 8 8 7 7 7 6 5 4 4 3 4 4 4 4 4 4 5 6 7 8 8 9 9 13 15 15 17 18 17 12 15 16 15 12 9 8 6 5 4 3 3 3 4 4 4 4 4 4 4 4 4 4 4 4 3 3 3 2 2 2 2 2 2 2 1 1 0 -0 -0 -1 -1 -0 0 1 1 2 2 3
6 6 6 6 6 6 6 6 6 6 6 6 7 7 8 8 9 9 8 8 8 7 7 7 7 8 8 8 8 7 6 4 4 4 4 4 3 3 3 4 5 5 6 7 8 9 9 9 10 12 13 14 16 17 13 11 12 14 14 12 9 7 5 3 2 1 2 2 3 3 3 3 4 4 4 4 4 4 4 3 3 3 2 2 3 3 3 2 2 2 2 1 1 1 0 1 1 1 2 3 3 3 3
Height
3175 3175 3175 3175 3175 3175 3175 3174 3174 3174 3174 3174 3174 3174 3174 3174 3173 3173 3173 3173 3173 3173 3173 3173 3173 3173 3173 3173 3173 3173 3173 3173 3173 3173 3172 3172 3172 3172 3172 3173 3173 3173 3173 3172 3172 3173 3173 3173 3173 3173 3174 3174 3175 3175 3175 3176 3176 3177 3177 3178 3179 3179 3178 3178 3178 3178 3179 3179 3180 3180 3180 3180 3180 3180 3180 3181 3181 3182 3182 3182 3182 3182 3183 3183 3182 3182 3183 3183 3184 3184 3184 3183 3184 3184 3184 3184 3184 3184 3184 3185 3185 3185 3185
3175 3175 3175 3175 3175 3175 3175 3174 3174 3174 3174 3174 3174 3174 3174 3174 3173 3173 3173 3173 3173 3173 3173 3173 3173 3173 3173 3173 3173 3173 3173 3173 3173 3172 3172 3172 3172 3172 3172 3172 3173 3173 3172 3172 3172 3172 3172 3173 3173 3173 3173 3174 3174 3174 3175 3175 3175 3176 3176 3177 3178 3177 3177 3177 3178 3178 3178 3178 3179 3179 3180 3180 3180 3180 3180 3181 3181 3181 3182 3182 3182 3181 3181 3181 3181 3182 3183 3183 3183 3183 3184 3183 3183 3183 3183 3183 3183 3183 3184 3184 3184 3184 3185
3175 3175 3175 3175 3175 3175 3174 3174 3174 3174 3174 3174 3174 3174 3174 3174 3173 3173 3173 3173 3173 3173 3173 3173 3173 3173 3173 3173 3173 3173 3173 3173 3173 3172 3172 3172 3172 3172 3172 3172 3172 3172 3172 3172 3172 3172 3172 3172 3172 3173 3173 3173 3173 3174 3174 3174 3174 3175 3175 3176 3176 3176 3176 3176 3176 3177 3177 3178 3178 3178 3179 3180 3180 3180 3180 3180 3180 3180 3181 3181 3181 3181 3181 3181 3181 3182 3182 3182 3183 3183 3183 3183 3183 3183 3183 3183 3183 3183 3183 3183 3183 3184 3184
3174 3174 3174 3174 3174 3174 3174 3174 3174 3174 3174 3174 3174 3174 3174 3174 3173 3173 3173 3173 3173 3173 3173 3173 3173 3173 3173 3173 3173 3173 3173 3173 3172 3172 3172 3172 3172 3172 3172 3172 3172 3172 3172 3172 3172 3172 3172 3172 3172 3172 3172 3173 3173 3173 3173 3173 3174 3174 3175 3175 3175 3175 3175 3175 3175 3176 3176 3177 3177 3178 3178 3179 3179 3179 3178 3178 3179 3179 3179 3180 3180 3180 3180 3180 3180 3181 3181 3182 3182 3182 3182 3182 3183 3184 3184 3183 3183 3182 3182 3183 3183 3183 3183
3174 3174 3174 3174 3174 3174 3174 3174 3174 3174 3174 3174 3174 3174 3174 3174 3173 3173 3173 3173 3173 3173 3173 3173 3173 3173 3173 3173 3173 3173 3172 3172 3172 3172 3172 3172 3172 3172 3172 3172 3172 3172 3172 3172 3172 3172 3172 3172 3172 3172 3172 3172 3172 3173 3173 3173 3173 3173 3173 3173 3174 3174 3175 3174 3174 3175 3176 3176 3177 3177 3177 3178 3178 3178 3178 3178 3178 3178 3179 3179 3179 3179 3179 3179 3179 3180 3180 3180 3181 3181 3181 3181 3182 3182 3182 3182 3182 3182 3182 3182 3183 3183 3182
3174 3174 3174 3174 3174 3174 3174 3174 3174 3174 3174 3174 3174 3174 3174 3173 3173 3173 3173 3173 3173 3173 3173 3173 3173 3173 3173 3173 3173 3173 3172 3172 3172 3172 3172 3172 3172 3172 3172 3172 3172 3172 3172 3172 3172 3172 3172 3172 3172 3172 3172 3172 3172 3172 3172 3172 3173 3173 3173 3173 3173 3174 3175 3174 3174 3174 3175 3175 3176 3176 3176 3176 3177 3177 3177 3177 3177 3178 3178 3178 3178 3178 3178 3178 3178 3179 3179 3179 3180 3180 3180 3180 3180 3180 3181 3181 3181 3181 3182 3182 3182 3182 3182
3174 3174 3174 3174 3174 3174 3174 3174 3174 3174 3174 3173 3173 3173 3173 3173 3173 3173 3173 3173 3173 3173 3173 3173 3173 3173 3173 3173 3173 3173 3172 3172 3172 3172 3172 3172 3172 3172 3172 3172 3172 3172 3171 3172 3172 3172 3172 3172 3172 3171 3171 3171 3171 3171 3171 3172 3172 3172 3172 3172 3172 3173 3174 3174 3174 3174 3174 3174 3175 3175 3175 3175 3175 3176 3176 3176 3176 3177 3177 3176 3177 3177 3176 3177 3177 3177 3178 3178 3178 3179 3179 3179 3179 3179 3180 3180 3180 3180 3181 3181 3181 3182 3182
3174 3174 3174 3174 3174 3173 3173 3173 3173 3173 3173 3173 3173 3173 3173 3173 3173 3173 3173 3173 3173 3173 3173 3173 3173 3173 3173 3173 3173 3173 3172 3172 3172 3172 3172 3172 3172 3172 3172 3171 3171 3171 3171 3171 3171 3171 3171 3171 3171 3171 3171 3171 3171 3171 3171 3171 3171 3171 3171 3171 3172 3173 3173 3174 3174 3174 3174 3174 3174 3174 3174 3175 3175 3174 3174 3175 3175 3175 3175 3175 3176 3176 3175 3175 3175 3176 3176 3177 3177 3177 3178 3178 3178 3178 3179 3179 3179 3179 3179 3180 3180 3180 3180
3174 3174 3173 3173 3173 3173 3173 3173 3173 3173 3173 3173 3173 3173 3173 3173 3173 3173 3173 3173 3173 3173 3173 3173 3173 3173 3173 3173 3173 3172 3172 3172 3172 3172 3172 3172 3172 3172 3171 3171 3171 3171 3171 3171 3171 3171 3171 3171 3171 3171 3171 3171 3171 3170 3170 3170 3170 3170 3170 3170 3171 3172 3173 3173 3173 3173 3173 3173 3174 3174 3174 3174 3174 3173 3173 3173 3174 3174 3175 3175 3175 3175 3174 3174 3174 3174 3174 3175 3175 3176 3176 3176 3177 3177 3178 3178 3178 3178 3178 3179 3179 3179 3179
3174 3173 3173 3173 3173 3173 3173 3173 3173 3173 3173 3173 3173 3173 3173 3173 3173 3173 3173 3173 3173 3173 3173 3173 3173 3173 3173 3172 3172 3172 3172 3172 3172 3172 3172 3172 3172 3171 3171 3171 3171 3171 3171 3171 3171 3171 3170 3170 3170 3170 3170 3170 3170 3170 3170 3170 3170 3169 3169 3170 3170 3171 3172 3172 3172 3172 3172 3172 3173 3173 3173 3173 3173 3173 3172 3173 3173 3174 3174 3174 3174 3174 3173 3173 3173 3173 3173 3173 3173 3173 3174 3175 3175 3176 3176 3177 3177 3177 3177 3178 3178 3178 3178
3173 3173 3173 3173 3173 3173 3173 3173 3173 3173 3173 3173 3173 3173 3173 3173 3173 3173 3173 3173 3173 3173 3172 3172 3172 3172 3172 3172 3172 3172 3172 3172 3172 3172 3172 3172 3171 3171 3171 3171 3171 3171 3171 3171 3170 3170 3170 3170 3170 3170 3170 3170 3170 3169 3169 3169 3169 3169 3169 3169 3169 3170 3170 3171 3171 3171 3171 3171 3171 3171 3171 3171 3171 3171 3171 3171 3172 3173 3173 3173 3173 3173 3173 3173 3172 3172 3171 3171 3171 3172 3173 3173 3174 3174 3175 3175 3176 3176 3176 3176 3177 3177 3177
3173 3173 3173 3173 3173 3173 3173 3173 3173 3173 3173 3173 3173 3173 3173 3172 3172 3172 3172 3172 3172 3172 3172 3172 3172 3172 3172 3172 3172 3172 3172 3172 3172 3172 3172 3171 3171 3171 3171 3171 3171 3171 3170 3170 3170 3170 3170 3170 3170 3170 3170 3169 3169 3169 3169 3169 3169 3169 3169 3169 3169 3169 3169 3169 3169 3170 3170 3170 3170 3170 3170 3170 3170 3170 3170 3170 3171 3172 3172 3172 3173 3173 3172 3172 3171 3171 3170 3170 3170 3170 3171 3171 3172 3173 3173 3174 3174 3174 3175 3175 3175 3176 3176
3173 3173 3173 3173 3173 3173 3173 3173 3173 3173 3172 3172 3172 3172 3172 3172 3172 3172 3172 3172 3172 3172 3172 3172 3172 3172 3172 3172 3172 3172 3171 3171 3171 3171 3171 3171 3171 3171 3171 3171 3170 3170 3170 3170 3170 3170 3170 3170 3169 3169 3169 3169 3169 3169 3169 3168 3168 3168 3168 3168 3168 3168 3168 3168 3168 3168 3168 3168 3168 3168 3169 3169 3169 3169 3169 3170 3170 3171 3171 3171 3172 3172 3171 3171 3170 3170 3169 3169 3169 3169 3169 3169 3170 3171 3172 3172 3173 3173 3173 3174 3174 3174 3175
3173 3173 3173 3173 3173 3173 3173 3173 3172 3172 3172 3172 3172 3172 3172 3172 3172 3172 3172 3172 3172 3172 3172 3172 3171 3171 3171 3171 3171 3171 3171 3171 3171 3171 3171 3171 3171 3170 3170 3170 3170 3170 3170 3170 3170 3169 3169 3169 3169 3169 3169 3169 3168 3168 3168 3168 3168 3168 3168 3168 3168 3168 3168 3168 3168 3168 3167 3167 3167 3167 3167 3168 3168 3168 3168 3169 3169 3170 3171 3171 3170 3170 3170 3169 3169 3168 3168 3168 3168 3167 3167 3168 3169 3170 3170 3171 3171 3172 3173 3173 3173 3173 3173
3173 3173 3173 3173 3172 3172 3172 3172 3172 3172 3172 3172 3172 3172 3172 3172 3172 3172 3172 3171 3171 3171 3171 3171 3171 3171 3171 3171 3171 3171 3171 3170 3170 3170 3170 3170 3170 3170 3170 3170 3170 3169 3169 3169 3169 3169 3169 3169 3169 3168 3168 3168 3168 3168 3168 3168 3168 3168 3168 3168 3168 3167 3167 3167 3167 3167 3167 3166 3166 3166 3166 3166 3167 3167 3167 3168 3168 3169 3170 3170 3169 3169 3168 3168 3168 3167 3167 3167 3166 3166 3166 3167 3167 3168 3169 3169 3170 3170 3171 3171 3172 3172 3172
3172 3172 3172 3172 3172 3172 3172 3172 3172 3172 3172 3172 3172 3172 3172 3171 3171 3171 3171 3171 3171 3171 3171 3171 3171 3171 3170 3170 3170 3170 3170 3170 3170 3170 3170 3170 3170 3169 3169 3169 3169 3169 3169 3169 3168 3168 3168 3168 3168 3168 3168 3168 3168 3168 3167 3167 3167 3167 3167 3167 3167 3167 3167 3166 3166 3166 3166 3166 3166 3165 3165 3165 3166 3166 3166 3167 3167 3168 3168 3168 3168 3168 3168 3167 3167 3167 3166 3166 3165 3165 3165 3166 3166 3167 3168 3168 3168 3169 3169 3170 3170 3170 3171
3172 3172 3172 3172 3172 3172 3172 3172 3172 3171 3171 3171 3171 3171 3171 3171 3171 3171 3171 3171 3171 3171 3170 3170 3170 3170 3170 3170 3170 3170 3169 3169 3169 3169 3169 3169 3169 3169 3169 3169 3168 3168 3168 3168 3168 3168 3168 3168 3168 3167 3167 3167 3167 3167 3167 3167 3167 3167 3167 3167 3167 3166 3166 3166 3166 3165 3165 3165 3165 3165 3164 3164 3164 3165 3165 3165 3166 3166 3167 3167 3168 3167 3167 3166 3166 3166 3165 3165 3165 3164 3164 3165 3165 3165 3166 3167 3167 3167 3168 3168 3168 3168 3168
3172 3172 3172 3172 3171 3171 3171 3171 3171 3171 3171 3171 3171 3171 3171 3171 3170 3170 3170 3170 3170 3170 3170 3170 3170 3170 3169 3169 3169 3169 3169 3169 3168 3168 3168 3168 3168 3168 3168 3168 3168 3168 3168 3168 3167 3167 3167 3167 3167 3167 3166 3166 3166 3166 3166 3166 3166 3166 3166 3166 3166 3166 3166 3165 3165 3165 3165 3164 3164 3164 3164 3164 3164 3164 3164 3164 3164 3165 3165 3166 3166 3166 3166 3166 3165 3165 3165 3164 3164 3163 3163 3164 3164 3164 3165 3164 3165 3166 3166 3166 3166 3166 3166
3171 3171 3171 3171 3171 3171 3171 3171 3171 3171 3171 3170 3170 3170 3170 3170 3170 3170 3170 3170 3169 3169 3169 3169 3169 3169 3169 3169 3168 3168 3168 3168 3168 3168 3168 3168 3167 3167 3167 3167 3167 3167 3167 3167 3167 3166 3166 3166 3166 3166 3166 3165 3165 3165 3165 3165 3165 3165 3165 3165 3165 3165 3165 3165 3164 3164 3164 3164 3164 3163 3163 3163 3163 3163 3163 3163 3163 3163 3164 3164 3164 3165 3165 3164 3164 3164 3163 3163 3163 3163 3162 3163 3163 3163 3163 3163 3163 3164 3164 3165 3165 3165 3165
3171 3171 3171 3171 3171 3171 3171 3170 3170 3170 3170 3170 3170 3170 3170 3169 3169 3169 3169 3169 3169 3169 3169 3168 3168 3168 3168 3168 3168 3168 3168 3167 3167 3167 3167 3167 3166 3166 3166 3166 3166 3166 3166 3166 3166 3166 3165 3165 3165 3165 3165 3165 3164 3164 3164 3164 3164 3164 3164 3164 3164 3164 3164 3164 3164 3164 3163 3163 3163 3163 3163 3163 3163 3162 3162 3162 3162 3162 3162 3163 3163 3163 3163 3163 3163 3163 3162 3162 3162 3162 3161 3161 3161 3161 3162 3162 3162 3163 3163 3163 3163 3163 3163
3171 3171 3171 3170 3170 3170 3170 3170 3170 3170 3170 3169 3169 3169 3169 3169 3169 3169 3168 3168 3168 3168 3168 3168 3168 3168 3168 3167 3167 3167 3167 3167 3166 3166 3166 3166 3165 3165 3165 3165 3165 3165 3165 3165 3165 3165 3164 3164 3164 3164 3164 3164 3164 3163 3163 3163 3163 3163 3163 3163 3163 3163 3163 3163 3163 3163 3163 3163 3163 3162 3162 3162 3162 3162 3162 3161 3161 3161 3161 3161 3161 3161 3162 3162 3162 3161 3161 3161 3161 3160 3160 3160 3160 3160 3160 3160 3161 3161 3161 3161 3161 3162 3162
3170 3170 3170 3170 3170 3170 3170 3170 3169 3169 3169 3169 3169 3169 3169 3168 3168 3168 3168 3168 3168 3168 3168 3167 3167 3167 3167 3167 3166 3166 3166 3166 3165 3165 3165 3165 3164 3164 3164 3164 3164 3164 3164 3164 3164 3163 3163 3163 3163 3163 3163 3163 3163 3163 3163 3163 3162 3162 3162 3162 3162 3162 3162 3162 3162 3162 3162 3162 3162 3161 3161 3161 3161 3161 3161 3161 3160 3160 3160 3160 3160 3160 3160 3160 3160 3160 3160 3160 3159 3159 3159 3159 3159 3159 3158 3158 3158 3159 3159 3159 3159 3160 3160
3170 3170 3170 3170 3170 3170 3169 3169 3169 3169 3169 3169 3168 3168 3168 3168 3168 3168 3168 3167 3167 3167 3167 3167 3166 3166 3166 3166 3166 3165 3165 3165 3165 3164 3164 3164 3163 3163 3163 3163 3163 3163 3163 3163 3163 3162 3162 3162 3162 3162 3162 3162 3162 3162 3162 3162 3161 3161 3161 3161 3161 3161 3161 3160 3160 3160 3160 3160 3160 3160 3160 3160 3160 3160 3160 3160 3160 3159 3159 3159 3159 3159 3159 3159 3159 3158 3158 3158 3158 3158 3158 3158 3158 3158 3158 3157 3157 3157 3157 3158 3158 3159 3159
3170 3170 3169 3169 3169 3169 3169 3169 3169 3168 3168 3168 3168 3168 3168 3168 3167 3167 3167 3167 3167 3166 3166 3166 3166 3166 3165 3165 3165 3165 3164 3164 3164 3164 3163 3163 3163 3163 3162 3162 3162 3161 3161 3162 3161 3161 3161 3161 3161 3161 3161 3161 3161 3161 3161 3160 3160 3160 3160 3160 3160 3160 3159 3159 3159 3159 3159 3159 3159 3159 3159 3159 3159 3159 3159 3159 3159 3158 3158 3158 3158 3158 3158 3158 3158 3158 3157 3157 3157 3157 3157 3157 3157 3157 3157 3157 3156 3156 3156 3156 3156 3157 3158
3169 3169 3169 3169 3169 3169 3168 3168 3168 3168 3168 3168 3168 3167 3167 3167 3167 3167 3166 3166 3166 3166 3166 3165 3165 3165 3165 3164 3164 3164 3164 3163 3163 3163 3163 3162 3162 3162 3161 3161 3161 3160 3160 3160 3160 3160 3160 3160 3160 3159 3159 3159 3159 3159 3159 3159 3159 3159 3159 3159 3159 3159 3158 3158 3158 3158 3158 3158 3158 3158 3158 3158 3158 3158 3158 3158 3158 3158 3158 3158 3157 3157 3157 3157 3157 3157 3156 3156 3156 3156 3156 3156 3156 3156 3156 3156 3155 3155 3155 3155 3155 3155 3155
3169 3169 3169 3168 3168 3168 3168 3168 3168 3168 3167 3167 3167 3167 3167 3166 3166 3166 3166 3165 3165 3165 3165 3165 3164 3164 3164 3163 3163 3163 3163 3163 3162 3162 3162 3161 3161 3161 3160 3160 3160 3159 3159 3159 3159 3159 3159 3159 3158 3158 3158 3158 3158 3158 3158 3158 3158 3158 3158 3158 3158 3158 3157 3157 3157 3157 3157 3157 3157 3156 3156 3156 3156 3156 3157 3157 3157 3156 3156 3156 3156 3156 3156 3156 3156 3156 3155 3155 3155 3155 3155 3155 3155 3155 3155 3154 3154 3154 3154 3154 3153 3153 3153
3168 3168 3168 3168 3168 3168 3168 3168 3167 3167 3167 3167 3166 3166 3166 3166 3165 3165 3165 3165 3164 3164 3164 3164 3163 3163 3163 3163 3163 3162 3162 3162 3161 3161 3161 3160 3160 3160 3159 3159 3159 3158 3158 3158 3158 3158 3158 3158 3158 3157 3157 3157 3157 3157 3157 3157 3157 3157 3157 3157 3156 3156 3156 3156 3156 3156 3156 3155 3155 3155 3155 3155 3155 3155 3155 3155 3155 3155 3155 3155 3155 3155 3155 3155 3155 3154 3154 3154 3154 3154 3154 3153 3153 3153 3153 3153 3153 3153 3153 3153 3153 3152 3152
3168 3168 3168 3168 3168 3167 3167 3167 3167 3167 3166 3166 3166 3166 3165 3165 3165 3165 3164 3164 3164 3163 3163 3163 3163 3163 3162 3162 3162 3161 3161 3161 3161 3160 3160 3160 3159 3159 3158 3158 3158 3158 3157 3157 3157 3157 3156 3156 3156 3156 3156 3155 3155 3155 3155 3155 3155 3155 3155 3155 3155 3155 3155 3155 3154 3154 3154 3154 3154 3154 3154 3154 3154 3154 3154 3154 3154 3154 3154 3153 3154 3154 3153 3153 3153 3153 3153 3153 3153 3153 3153 3153 3152 3152 3152 3152 3152 3152 3152 3152 3151 3151 3151
3168 3168 3167 3167 3167 3167 3167 3166 3166 3166 3166 3166 3165 3165 3165 3165 3164 3164 3164 3163 3163 3163 3163 3163 3162 3162 3162 3161 3161 3161 3160 3160 3160 3160 3159 3159 3158 3158 3158 3157 3157 3157 3156 3156 3156 3155 3155 3155 3155 3155 3154 3154 3154 3154 3154 3154 3154 3153 3153 3153 3153 3153 3153 3153 3153 3153 3153 3153 3153 3153 3153 3153 3153 3153 3153 3153 3153 3152 3152 3152 3152 3152 3152 3152 3152 3152 3152 3152 3152 3151 3151 3151 3151 3151 3151 3151 3151 3151 3150 3150 3150 3150 3150
3167 3167 3167 3167 3167 3166 3166 3166 3166 3166 3165 3165 3165 3165 3165 3164 3164 3164 3163 3163 3163 3163 3162 3162 3162 3161 3161 3161 3160 3160 3160 3159 3159 3159 3159 3158 3158 3158 3157 3157 3156 3156 3156 3155 3155 3155 3154 3154 3154 3154 3153 3153 3153 3153 3153 3153 3152 3152 3152 3152 3152 3152 3152 3152 3152 3151 3151 3151 3151 3151 3151 3151 3151 3151 3151 3151 3151 3151 3151 3151 3151 3151 3151 3151 3151 3151 3150 3150 3150 3150 3150 3150 3150 3150 3150 3150 3150 3149 3149 3149 3149 3149 3149
3167 3167 3166 3166 3166 3166 3166 3166 3165 3165 3165 3165 3165 3164 3164 3164 3164 3163 3163 3163 3163 3163 3162 3162 3161 3161 3160 3160 3160 3159 3159 3159 3158 3158 3158 3158 3157 3157 3157 3156 3156 3155 3155 3154 3154 3154 3153 3153 3153 3153 3152 3152 3152 3152 3151 3151 3151 3151 3151 3150 3150 3150 3150 3150 3150 3150 3150 3150 3150 3150 3150 3150 3150 3150 3150 3150 3150 3150 3150 3150 3149 3149 3149 3149 3149 3149 3149 3149 3149 3149 3149 3149 3149 3149 3149 3149 3148 3148 3148 3148 3148 3148 3148
3166 3166 3166 3166 3166 3165 3165 3165 3165 3165 3165 3165 3164 3164 3164 3164 3163 3163 3163 3163 3163 3162 3162 3162 3161 3161 3160 3160 3159 3159 3158 3158 3158 3157 3157 3157 3156 3156 3156 3155 3155 3154 3154 3154 3153 3153 3153 3152 3152 3152 3151 3151 3151 3150 3150 3150 3150 3149 3149 3149 3149 3148 3148 3148 3148 3148 3148 3148 3148 3148 3148 3148 3148 3148 3148 3148 3148 3148 3148 3148 3148 3148 3148 3148 3148 3148 3148 3148 3148 3148 3148 3148 3148 3148 3148 3148 3148 3148 3147 3147 3147 3147 3147
3166 3166 3165 3165 3165 3165 3165 3165 3165 3164 3164 3164 3164 3164 3164 3163 3163 3163 3163 3163 3163 3162 3162 3162 3161 3161 3160 3160 3159 3158 3158 3158 3157 3157 3156 3156 3155 3155 3155 3154 3154 3153 3153 3153 3153 3152 3152 3151 3151 3151 3150 3150 3150 3149 3149 3149 3149 3148 3148 3148 3147 3147 3147 3147 3147 3147 3147 3147 3147 3147 3147 3147 3147 3147 3147 3147 3147 3147 3147 3147 3147 3147 3147 3147 3146 3146 3146 3146 3146 3146 3146 3146 3146 3146 3146 3146 3146 3146 3146 3146 3145 3145 3145
3165 3165 3165 3165 3165 3164 3164 3164 3164 3164 3164 3164 3164 3163 3163 3163 3163 3163 3163 3163 3162 3162 3162 3161 3161 3161 3160 3159 3159 3158 3158 3157 3157 3156 3156 3155 3155 3154 3154 3153 3153 3153 3152 3152 3152 3151 3151 3150 3150 3150 3149 3149 3149 3148 3148 3148 3148 3147 3147 3146 3146 3146 3146 3145 3145 3145 3145 3145 3145 3145 3145 3145 3145 3145 3145 3145 3145 3145 3145 3145 3145 3145 3145 3145 3145 3145 3145 3145 3145 3145 3145 3145 3145 3145 3145 3145 3145 3145 3145 3144 3144 3144 3144
3164 3164 3164 3164 3164 3164 3164 3164 3164 3163 3163 3163 3163 3163 3163 3163 3163 3163 3162 3162 3162 3162 3162 3161 3161 3160 3160 3159 3159 3158 3158 3157 3156 3156 3155 3155 3154 3154 3153 3153 3153 3152 3151 3151 3151 3150 3150 3149 3149 3149 3148 3148 3148 3148 3147 3147 3147 3146 3146 3145 3145 3145 3144 3144 3144 3144 3143 3143 3143 3143 3143 3144 3144 3144 3144 3144 3144 3144 3144 3144 3144 3144 3144 3144 3143 3143 3143 3143 3143 3143 3143 3143 3143 3143 3143 3143 3143 3143 3143 3143 3143 3143 3143
3164 3164 3164 3163 3163 3163 3163 3163 3163 3163 3163 3163 3163 3163 3163 3162 3162 3162 3162 3162 3162 3162 3161 3161 3161 3160 3160 3159 3159 3158 3157 3157 3156 3155 3155 3154 3154 3153 3153 3153 3152 3151 3151 3150 3150 3149 3149 3148 3148 3148 3147 3147 3147 3147 3146 3146 3146 3145 3145 3144 3143 3143 3143 3143 3143 3142 3142 3142 3142 3142 3142 3142 3142 3142 3142 3142 3142 3142 3142 3142 3142 3142 3142 3142 3142 3142 3142 3142 3142 3142 3142 3142 3142 3142 3142 3142 3142 3142 3142 3142 3141 3141 3141
3163 3163 3163 3163 3163 3163 3163 3163 3163 3163 3162 3162 3162 3162 3162 3162 3162 3162 3162 3161 3161 3161 3161 3161 3160 3160 3159 3159 3158 3158 3157 3157 3156 3155 3154 3154 3153 3153 3152 3152 3151 3151 3150 3149 3149 3148 3148 3147 3147 3147 3146 3146 3146 3145 3145 3145 3145 3144 3143 3143 3143 3142 3142 3141 3141 3141 3141 3141 3141 3141 3141 3141 3141 3140 3140 3140 3140 3140 3140 3140 3141 3141 3141 3141 3141 3141 3141 3141 3140 3140 3140 3140 3140 3140 3140 3140 3140 3140 3140 3140 3140 3140 3140
3162 3162 3162 3162 3162 3162 3162 3162 3162 3162 3162 3162 3162 3162 3161 3161 3161 3161 3161 3161 3161 3161 3160 3160 3160 3159 3159 3159 3158 3158 3157 3156 3156 3155 3154 3153 3153 3152 3152 3151 3151 3150 3149 3148 3148 3147 3147 3146 3146 3145 3145 3145 3144 3144 3144 3144 3143 3143 3143 3142 3141 3141 3141 3140 3140 3140 3139 3139 3139 3139 3139 3139 3139 3139 3139 3139 3139 3139 3139 3139 3139 3139 3139 3139 3139 3139 3139 3139 3139 3139 3139 3139 3139 3139 3139 3139 3139 3139 3139 3138 3138 3138 3138
3162 3162 3162 3162 3161 3161 3161 3161 3161 3161 3161 3161 3161 3161 3161 3161 3160 3160 3160 3160 3160 3160 3160 3159 3159 3159 3159 3158 3158 3157 3157 3156 3155 3155 3154 3153 3153 3152 3151 3151 3150 3149 3148 3148 3147 3146 3146 3145 3145 3144 3144 3143 3143 3143 3143 3143 3142 3142 3142 3141 3140 3140 3139 3139 3138 3138 3138 3138 3138 3138 3138 3138 3137 3137 3137 3137 3137 3137 3137 3137 3137 3137 3137 3138 3138 3138 3138 3138 3138 3138 3138 3138 3138 3138 3138 3138 3138 3137 3137 3137 3137 3137 3137
3161 3161 3161 3161 3161 3161 3160 3160 3160 3160 3160 3160 3160 3160 3160 3160 3160 3160 3159 3159 3159 3159 3159 3159 3158 3158 3158 3158 3158 3157 3156 3156 3155 3154 3153 3153 3152 3151 3151 3150 3149 3149 3148 3147 3146 3145 3145 3144 3144 3143 3143 3142 3142 3142 3142 3142 3141 3141 3140 3140 3139 3139 3138 3138 3137 3137 3137 3137 3137 3136 3136 3136 3136 3136 3136 3136 3136 3136 3136 3136 3136 3136 3136 3136 3136 3136 3136 3136 3136 3136 3136 3136 3136 3136 3136 3136 3136 3136 3136 3136 3136 3136 3135
3160 3160 3160 3160 3160 3160 3160 3159 3159 3159 3159 3159 3159 3159 3159 3159 3159 3159 3159 3158 3158 3158 3158 3158 3158 3158 3157 3157 3157 3156 3156 3155 3154 3153 3153 3152 3151 3150 3150 3149 3148 3148 3147 3146 3145 3144 3144 3143 3143 3142 3142 3141 3141 3141 3140 3140 3140 3140 3139 3139 3138 3138 3137 3137 3136 3136 3136 3135 3135 3135 3135 3135 3135 3134 3134 3134 3134 3134 3134 3134 3134 3134 3134 3134 3134 3134 3134 3134 3134 3134 3134 3134 3134 3134 3134 3134 3134 3134 3134 3134 3134 3134 3134
3159 3159 3159 3159 3159 3159 3159 3159 3158 3158 3158 3158 3158 3158 3158 3158 3158 3158 3158 3158 3158 3158 3157 3157 3157 3157 3157 3156 3156 3156 3155 3154 3154 3153 3152 3151 3150 3150 3149 3148 3148 3147 3146 3145 3144 3143 3143 3142 3142 3141 3140 3140 3139 3139 3139 3139 3138 3138 3138 3138 3137 3136 3136 3136 3135 3135 3135 3134 3134 3134 3134 3133 3133 3133 3133 3133 3133 3133 3133 3133 3133 3133 3133 3133 3133 3133 3133 3133 3133 3133 3133 3133 3133 3133 3133 3133 3133 3133 3133 3133 3133 3133 3133
3158 3158 3158 3158 3158 3158 3158 3158 3158 3158 3158 3158 3157 3157 3157 3157 3157 3157 3157 3157 3157 3157 3156 3156 3156 3156 3156 3155 3155 3155 3154 3153 3153 3152 3151 3150 3150 3149 3148 3148 3147 3146 3145 3144 3144 3143 3142 3141 3140 3140 3139 3139 3138 3138 3138 3138 3137 3137 3137 3136 3136 3135 3135 3135 3134 3134 3134 3133 3133 3133 3133 3133 3132 3132 3132 3132 3132 3132 3132 3132 3132 3132 3132 3132 3132 3132 3132 3132 3132 3131 3131 3131 3131 3131 3131 3131 3131 3131 3131 3131 3131 3131 3131
3158 3158 3158 3158 3157 3157 3157 3157 3157 3157 3157 3157 3156 3156 3156 3156 3156 3156 3156 3156 3156 3156 3155 3155 3155 3155 3155 3154 3154 3154 3153 3153 3152 3152 3151 3150 3149 3148 3148 3147 3146 3145 3144 3144 3143 3142 3141 3140 3139 3139 3138 3138 3137 3137 3137 3136 3136 3136 3135 3135 3134 3134 3134 3134 3133 3133 3133 3133 3133 3132 3132 3132 3132 3131 3131 3131 3131 3131 3131 3131 3131 3131 3131 3131 3131 3130 3130 3130 3130 3130 3130 3130 3130 3130 3130 3130 3130 3130 3130 3129 3129 3129 3129
3156 3157 3157 3157 3156 3156 3156 3156 3156 3156 3156 3156 3155 3155 3155 3155 3155 3155 3155 3154 3154 3154 3154 3154 3154 3154 3153 3153 3153 3153 3152 3152 3151 3151 3150 3149 3148 3148 3147 3146 3145 3144 3143 3143 3142 3141 3140 3139 3138 3138 3137 3137 3136 3136 3136 3135 3135 3134 3134 3134 3133 3133 3133 3133 3133 3132 3132 3132 3132 3131 3131 3131 3131 3131 3130 3130 3130 3130 3130 3130 3130 3130 3129 3129 3129 3129 3129 3129 3129 3129 3129 3129 3129 3128 3128 3128 3128 3128 3128 3128 3128 3128 3128
3155 3156 3156 3156 3156 3155 3155 3155 3155 3155 3155 3155 3154 3154 3154 3154 3154 3154 3153 3153 3153 3153 3153 3153 3153 3153 3152 3152 3152 3152 3151 3151 3150 3150 3149 3148 3148 3147 3146 3145 3144 3144 3143 3142 3141 3140 3139 3138 3137 3137 3136 3136 3135 3135 3134 3134 3134 3133 3133 3133 3132 3132 3132 3132 3132 3131 3131 3131 3131 3130 3130 3130 3130 3130 3130 3130 3129 3129 3129 3129 3129 3128 3128 3128 3128 3128 3128 3128 3128 3128 3128 3128 3128 3127 3127 3127 3127 3127 3127 3126 3126 3126 3126
3154 3154 3155 3155 3155 3154 3154 3154 3154 3154 3154 3154 3154 3153 3153 3153 3153 3153 3153 3153 3152 3152 3152 3152 3152 3151 3151 3151 3151 3150 3150 3150 3149 3149 3148 3148 3147 3146 3145 3144 3144 3143 3142 3141 3140 3139 3138 3137 3136 3136 3135 3134 3134 3134 3133 3133 3133 3133 3132 3132 3131 3131 3131 3131 3131 3130 3130 3130 3130 3130 3129 3129 3129 3129 3129 3129 3129 3129 3128 3128 3128 3128 3128 3128 3127 3127 3127 3127 3127 3126 3126 3126 3126 3126 3126 3126 3125 3125 3125 3125 3124 3124 3124
3153 3153 3153 3153 3153 3153 3153 3153 3153 3153 3153 3153 3153 3153 3153 3153 3152 3152 3152 3152 3151 3151 3151 3151 3150 3150 3150 3150 3149 3149 3149 3148 3148 3148 3147 3146 3146 3145 3145 3144 3143 3142 3141 3140 3139 3138 3137 3136 3135 3135 3134 3133 3133 3133 3133 3132 3132 3132 3131 3131 3131 3130 3130 3130 3130 3130 3129 3129 3129 3129 3129 3128 3128 3128 3128 3128 3128 3128 3128 3128 3127 3127 3127 3127 3126 3126 3126 3126 3125 3125 3125 3125 3125 3124 3124 3124 3124 3124 3123 3123 3123 3123 3123
3152 3152 3152 3152 3153 3153 3152 3152 3152 3152 3152 3152 3152 3152 3152 3152 3151 3151 3151 3151 3150 3150 3150 3150 3149 3149 3148 3148 3148 3148 3148 3147 3147 3147 3146 3145 3145 3144 3144 3143 3143 3142 3141 3140 3139 3138 3137 3136 3135 3134 3133 3133 3132 3132 3132 3132 3131 3131 3131 3130 3130 3130 3129 3129 3129 3129 3129 3128 3128 3128 3128 3128 3128 3128 3128 3128 3128 3127 3127 3127 3127 3126 3126 3126 3125 3125 3125 3124 3124 3124 3124 3124 3123 3123 3123 3123 3123 3122 3122 3122 3122 3121 3121
3151 3151 3151 3151 3151 3151 3151 3151 3151 3151 3151 3151 3151 3151 3151 3150 3150 3150 3150 3149 3149 3149 3149 3148 3148 3148 3148 3147 3147 3147 3146 3146 3146 3145 3145 3144 3144 3143 3143 3142 3142 3141 3140 3139 3138 3138 3137 3135 3134 3133 3133 3132 3131 3131 3131 3131 3130 3130 3130 3129 3129 3129 3129 3129 3128 3128 3128 3128 3128 3128 3127 3127 3127 3127 3127 3127 3127 3127 3126 3126 3126 3126 3125 3125 3125 3124 3124 3123 3123 3123 3123 3123 3122 3122 3122 3122 3121 3121 3121 3121 3120 3120 3120
3150 3150 3150 3150 3150 3150 3150 3150 3150 3150 3150 3150 3149 3149 3149 3149 3149 3149 3149 3148 3148 3148 3148 3147 3147 3147 3146 3146 3146 3145 3145 3145 3144 3144 3143 3143 3143 3142 3142 3141 3141 3140 3139 3138 3138 3137 3136 3135 3134 3133 3132 3131 3131 3130 3130 3130 3130 3129 3129 3129 3129 3128 3128 3128 3128 3128 3127 3127 3127 3127 3127 3127 3126 3126 3126 3126 3126 3126 3126 3125 3125 3125 3124 3124 3124 3123 3123 3123 3122 3122 3122 3122 3121 3121 3121 3121 3120 3120 3120 3119 3119 3119 3118
3148 3148 3148 3148 3148 3148 3148 3148 3148 3148 3148 3148 3148 3148 3148 3148 3148 3148 3148 3147 3147 3147 3146 3146 3146 3145 3145 3145 3144 3144 3144 3143 3143 3143 3142 3142 3141 3141 3141 3140 3140 3139 3138 3138 3137 3136 3136 3135 3134 3133 3132 3131 3130 3129 3129 3129 3129 3128 3128 3128 3128 3128 3128 3128 3127 3127 3127 3127 3126 3126 3126 3126 3126 3125 3125 3125 3125 3125 3125 3124 3124 3124 3124 3123 3123 3123 3122 3122 3122 3121 3121 3121 3120 3120 3120 3119 3119 3119 3118 3118 3118 3117 3117
3147 3147 3147 3147 3147 3147 3147 3147 3147 3147 3147 3147 3147 3147 3147 3147 3147 3147 3146 3146 3146 3145 3145 3145 3144 3144 3143 3143 3143 3143 3143 3142 3142 3141 3141 3140 3140 3140 3139 3139 3139 3138 3137 3137 3135 3135 3135 3135 3134 3132 3131 3130 3129 3129 3128 3128 3128 3128 3128 3128 3127 3127 3127 3127 3127 3127 3126 3126 3126 3126 3125 3125 3125 3125 3124 3124 3124 3124 3124 3123 3123 3123 3123 3123 3122 3122 3122 3121 3121 3120 3120 3119 3119 3119 3118 3118 3118 3118 3117 3117 3116 3116 3115
3146 3146 3146 3146 3146 3146 3146 3146 3146 3146 3146 3146 3146 3146 3146 3146 3145 3145 3145 3145 3144 3144 3144 3143 3143 3143 3142 3142 3142 3141 3141 3141 3140 3140 3140 3139 3139 3138 3138 3138 3137 3137 3136 3136 3135 3134 3133 3133 3133 3132 3131 3129 3129 3128 3128 3128 3127 3127 3127 3127 3127 3127 3127 3126 3126 3126 3126 3125 3125 3125 3125 3124 3124 3124 3124 3123 3123 3123 3123 3123 3123 3122 3122 3122 3121 3121 3121 3120 3120 3119 3119 3118 3118 3118 3117 3117 3117 3116 3116 3115 3115 3114 3113
3144 3145 3145 3145 3145 3144 3144 3144 3144 3144 3144 3144 3144 3144 3144 3144 3144 3144 3144 3143 3143 3143 3143 3142 3142 3141 3141 3140 3140 3140 3140 3139 3139 3139 3138 3138 3138 3137 3137 3136 3135 3135 3134 3134 3134 3133 3132 3132 3132 3131 3131 3130 3128 3128 3127 3127 3127 3127 3127 3126 3126 3126 3126 3126 3126 3125 3125 3125 3125 3124 3124 3124 3124 3123 3123 3123 3123 3122 3122 3122 3122 3121 3121 3121 3120 3120 3119 3119 3118 3118 3118 3117 3117 3116 3116 3115 3115 3114 3114 3113 3113 3112 3112
3143 3143 3143 3143 3143 3143 3143 3143 3143 3143 3143 3143 3143 3143 3143 3143 3143 3143 3142 3142 3142 3142 3141 3141 3140 3140 3140 3139 3138 3138 3138 3138 3138 3138 3137 3137 3137 3136 3136 3135 3134 3133 3133 3132 3132 3131 3131 3130 3130 3130 3130 3129 3128 3128 3127 3126 3126 3126 3126 3126 3126 3125 3125 3125 3125 3125 3124 3124 3124 3124 3123 3123 3123 3123 3123 3122 3122 3122 3121 3121 3121 3120 3120 3120 3119 3118 3118 3118 3117 3117 3116 3116 3115 3115 3114 3114 3113 3113 3112 3112 3111 3110 3109
3142 3142 3142 3142 3142 3142 3142 3142 3142 3142 3142 3142 3142 3141 3141 3141 3141 3141 3141 3141 3140 3140 3140 3139 3139 3139 3138 3138 3137 3137 3137 3136 3136 3136 3136 3136 3135 3135 3134 3134 3133 3133 3132 3131 3130 3130 3129 3129 3129 3129 3128 3128 3128 3127 3127 3126 3125 3125 3125 3125 3125 3125 3125 3124 3124 3124 3124 3124 3123 3123 3123 3123 3123 3122 3122 3122 3121 3121 3120 3120 3120 3119 3119 3118 3118 3117 3117 3116 3116 3115 3115 3114 3114 3113 3113 3112 3112 3111 3110 3110 3109 3108 3108
3140 3140 3141 3140 3140 3140 3140 3140 3140 3140 3140 3140 3140 3140 3140 3140 3140 3140 3139 3139 3139 3138 3138 3138 3138 3138 3137 3137 3136 3135 3135 3135 3135 3135 3134 3134 3134 3133 3133 3133 3132 3132 3131 3130 3129 3128 3128 3127 3127 3127 3127 3127 3127 3127 3126 3125 3125 3124 3124 3124 3124 3124 3124 3124 3123 3123 3123 3123 3123 3123 3122 3122 3122 3121 3121 3121 3120 3120 3119 3119 3118 3118 3118 3117 3116 3116 3115 3114 3114 3113 3113 3112 3112 3111 3111 3110 3110 3109 3108 3108 3107 3106 3105
3139 3139 3139 3139 3139 3139 3139 3139 3139 3139 3139 3139 3139 3138 3138 3138 3138 3138 3138 3138 3138 3137 3137 3137 3136 3136 3136 3135 3135 3134 3134 3133 3133 3133 3133 3133 3132 3132 3132 3131 3131 3130 3129 3129 3128 3128 3127 3126 3125 3125 3125 3125 3125 3125 3125 3125 3124 3124 3123 3123 3123 3123 3123 3123 3123 3123 3122 3122 3122 3122 3121 3121 3121 3120 3120 3120 3119 3119 3118 3118 3117 3117 3116 3115 3115 3114 3113 3113 3112 3112 3111 3110 3110 3109 3109 3108 3108 3107 3106 3105 3104 3104 3103
3137 3137 3138 3138 3138 3138 3138 3138 3138 3138 3138 3138 3138 3137 3137 3137 3137 3137 3137 3136 3136 3136 3135 3135 3135 3134 3134 3134 3133 3133 3132 3132 3132 3132 3132 3131 3131 3131 3130 3130 3129 3128 3128 3127 3127 3126 3126 3125 3124 3123 3123 3123 3123 3124 3124 3124 3123 3123 3123 3123 3123 3123 3122 3122 3122 3122 3121 3121 3121 3121 3120 3120 3120 3119 3119 3118 3118 3117 3117 3116 3116 3115 3114 3114 3113 3113 3112 3111 3110 3109 3109 3108 3108 3107 3107 3106 3105 3104 3104 3103 3102 3101 3100
3135 3136 3136 3136 3136 3136 3136 3136 3136 3136 3136 3136 3136 3136 3136 3135 3135 3135 3135 3135 3134 3134 3134 3133 3133 3133 3133 3132 3132 3131 3131 3131 3130 3130 3130 3130 3129 3129 3128 3128 3128 3127 3127 3126 3125 3125 3124 3123 3123 3122 3122 3122 3122 3122 3122 3123 3122 3122 3122 3121 3121 3121 3121 3121 3121 3120 3120 3120 3120 3119 3119 3119 3118 3118 3118 3117 3116 3116 3115 3115 3114 3113 3113 3112 3111 3111 3110 3109 3108 3108 3107 3106 3106 3105 3104 3103 3103 3102 3101 3100 3099 3099 3098